Back to catalog

STARLINK-34446

AliveCommunicationsVLEO
NORAD 65495·PAYLOAD·🇺🇸 United States

Launched Sep 5, 2025 from Cape Canaveral Space Force Station

Loading…

Next Passes (next 24 hours)

TLE

FreshSource: CelesTrak SupGP

Epoch: Sep 14, 2026, 14:39 UTC

1 65495C 25198D   26257.61090278  .00023927  00000+0  70626-3 0  2572
2 65495  53.1568 111.4500 0001008 120.2686 230.9082 15.34407877    16

Track STARLINK-34446 in real time with AllMySat

Download on the App Store